Home   Weather   Neenah   Past weeks
Flag for USA

Past Weather in Neenah, Wisconsin, USA — Yesterday and Last 2 Weeks

Now
43 °F

Passing clouds.


Feels Like: 35 °F
Forecast: 49 / 40 °F
Wind: 17 mph from Northwest

Location: Appleton / Outagamie

Current Time: Oct 16, 2019 at 7:40:22 am

Latest Report: Oct 16, 2019 at 6:45 am


Visibility: 10 mi

Pressure: 29.82 "Hg

Humidity: 71%

Dew Point: 34 °F

Location of NeenahLocation

Past Weather in Neenah — Graph

°F

Neenah Temperature Yesterday

Maximum temperature yesterday: 52 °F (at 12:45 pm)
Minimum temperature yesterday: 36 °F (at 12:55 am)
Average temperature yesterday: 43 °F

High & Low Weather Summary for the Past Weeks

 TemperatureHumidityPressure
High72 °F (Oct 1, 5:20 am)100% (Oct 1, 8:45 am)30.46 "Hg (Oct 1, 8:45 am)
Low30 °F (Oct 14, 5:20 am)24% (Oct 6, 3:45 pm)29.64 "Hg (Oct 15, 4:45 pm)
Average49 °F74%29.97 "Hg
* Reported Oct 1 5:20 am — Oct 16 5:45 am, Neenah. Weather by CustomWeather, © 2019

Note: Actual official high and low records may vary slightly from our data, if they occured in-between our weather recording intervals... More about our weather records

Advertising

Neenah Weather History for the Previous 24 Hours

Scroll right to see more
 ConditionsComfort  
Time TempWeatherWind HumidityBarometerVisibility
5:45 am
Wed, Oct 16
43 °FPartly cloudy.17 mph71%29.80 "Hg10 mi
5:20 am43 °FPartly cloudy.14 mph76%29.80 "Hg10 mi
4:55 am41 °FMostly cloudy.17 mph81%29.79 "Hg10 mi
4:35 am41 °FMostly cloudy.16 mph87%29.78 "Hg10 mi
4:15 am41 °FMostly cloudy.18 mph87%29.77 "Hg10 mi
3:55 am41 °FDrizzle. Overcast.16 mph87%29.77 "Hg10 mi
3:35 am41 °FMostly cloudy.17 mph87%29.76 "Hg10 mi
3:15 am41 °FMostly cloudy.16 mph87%29.76 "Hg10 mi
2:55 am39 °FMostly cloudy.15 mph93%29.75 "Hg10 mi
2:35 am39 °FOvercast.13 mph93%29.75 "Hg10 mi
2:15 am37 °FDrizzle. Overcast.16 mph100%29.75 "Hg10 mi
1:55 am37 °FLight rain. Overcast.15 mph93%29.74 "Hg10 mi
1:35 am36 °FLight rain. Overcast.15 mph93%29.74 "Hg10 mi
1:15 am34 °FRain. Mostly cloudy.17 mph100%29.73 "Hg7 mi
12:55 am36 °FLight rain. Low clouds.17 mph93%29.73 "Hg10 mi
12:35 am36 °FFog.17 mph100%29.72 "Hg5 mi
12:15 am37 °FFog.15 mph93%29.71 "Hg5 mi
11:55 pm
Tue, Oct 15
37 °FLight rain. Low clouds.17 mph100%29.70 "Hg4 mi
10:55 pm39 °FDrizzle. Overcast.22 mph87%29.69 "Hg4 mi
9:45 pm45 °FLight rain. Mostly cloudy.17 mph81%29.69 "Hg10 mi
8:45 pm45 °FMostly cloudy.12 mph87%29.68 "Hg10 mi
7:45 pm46 °FMostly cloudy.16 mph87%29.68 "Hg10 mi
6:45 pm46 °FDrizzle. Mostly cloudy.13 mph87%29.68 "Hg7 mi
5:52 pm48 °FMostly cloudy.7 mph87%29.67 "Hg10 mi
4:45 pm48 °FMore clouds than sun.5 mph87%29.64 "Hg10 mi
3:45 pm50 °FOvercast.6 mph82%29.65 "Hg10 mi
2:45 pm52 °FOvercast.No wind72%29.65 "Hg10 mi
2:20 pm50 °FMostly cloudy.No wind76%29.65 "Hg10 mi
2:05 pm52 °FLight rain. Overcast.7 mph72%29.67 "Hg7 mi
1:45 pm52 °FOvercast.7 mph62%29.67 "Hg10 mi
12:45 pm52 °FPartly sunny.6 mph67%29.70 "Hg10 mi
11:45 am50 °FPartly sunny.9 mph76%29.71 "Hg10 mi
10:45 am46 °FOvercast.9 mph93%29.75 "Hg10 mi
9:45 am48 °FDrizzle. Overcast.9 mph71%29.79 "Hg10 mi
8:45 am46 °FDrizzle. Overcast.12 mph87%29.81 "Hg10 mi
8:15 am45 °FMostly cloudy.12 mph93%29.82 "Hg10 mi
7:45 am45 °FLight rain. Fog.9 mph81%29.84 "Hg5 mi
Weather by CustomWeather, © 2019

See weather overview